Regional Weather Roundup
Issued by NWS

Home | Current Version | Previous Version | Graphics & Text | Print | Product List | Glossary On
Versions: 1 2 3 4 5 6 7 8 9 10 11 12 13 14 15 16 17 18 19 20 21 22 23 24 25 26 27 28 29 30 31 32 33 34 35 36 37 38 39 40 41 42 43 44 45 46 47 48 49 50
000
ASUS45 KCYS 212010
RWRWY

WYOMING REGIONAL WEATHER ROUNDUP
NATIONAL WEATHER SERVICE CHEYENNE WY
200 PM MDT THU MAY 21 2015

NOTE:  "FAIR" INDICATES FEW OR NO CLOUDS BELOW 12,000 FEET
WITH NO SIGNIFICANT WEATHER AND/OR OBSTRUCTIONS TO VISIBILITY.

WYZ001-212100-
YELLOWSTONE NATIONAL PARK

CITY           SKY/WX    TMP DP  RH WIND       PRES   REMARKS
LK YELLOWSTONE   N/A     52  32  46 E7        30.10F
W YELLOWSTONE  NOT AVBL

$$
WYZ002>013-054>058-071-098>099-212100-
NORTHERN WYOMING

CITY           SKY/WX    TMP DP  RH WIND       PRES   REMARKS
JACKSON        MOSUNNY   59  37  44 S12G21    30.05F
CODY           FAIR      57  43  58 E6        30.06F
GREYBULL       FAIR      63  36  36 VRB3      30.03F
WORLAND        FAIR      62  40  44 CALM      30.04F
SHERIDAN       FAIR      62  40  44 SE12      30.08F
BUFFALO        PTSUNNY   59  42  53 SE17      30.12F
GILLETTE       CLOUDY    55  39  54 S18       30.16S
HULETT         FAIR      63  32  31 E7G17     30.16S
NEWCASTLE      FAIR      55  37  50 S14G23    30.18F

$$
WYZ014>020-022>026-101>103-212100-
CENTRAL WYOMING

CITY           SKY/WX    TMP DP  RH WIND       PRES   REMARKS
BIG PINEY      FAIR      53  37  54 VRB5      30.10F
PINEDALE       FAIR      55  34  44 CALM      30.10F
DUBOIS         FAIR      50  37  62 SE9       30.09F
LANDER         PTSUNNY   55  41  59 S3        30.06F
RIVERTON       FAIR      57  41  55 E7        30.09F
CASPER         FAIR      58  41  53 E9        30.10F
DOUGLAS        PTSUNNY   56  42  59 SE18G24   30.14F

$$
WYZ021-027>030-104>119-212100-
SOUTHERN WYOMING

CITY           SKY/WX    TMP DP  RH WIND       PRES   REMARKS
EVANSTON       LGT RAIN  51  35  54 SE9       30.05F
KEMMERER       MOCLDY    54  39  58 E14       30.09F
FORT BRIDGER   MOCLDY    53  47  79 NE9       30.11F THUNDER
ROCK SPRINGS   PTSUNNY   59  44  57 E10       30.06F
DIXON          FAIR      63  35  35 W6        30.09F
RAWLINS        FAIR      60  37  42 NE6       30.10F
SARATOGA       CLOUDY    57  32  38 CALM      30.11S
LARAMIE        PTSUNNY   53  41  63 S22       30.11F
CHEYENNE       CLOUDY    46  39  76 S13       30.18S
TORRINGTON     CLOUDY    54  42  64 SE13      30.17S
PINE BLUFFS    CLOUDY    48  41  76 SE14G20   30.21S

$$


USA.gov is the U.S. government's official web portal to all federal, state and local government web resources and services.